Tracking 27107 objects as of 21-Mar-2023
HD Live streaming from Space Station
objects crossing your sky now

SL-8 DEB

Track SL-8 DEB now!
10-day predictions


NORAD ID: 39691
Int'l Code: 1991-009DE
Perigee: 1,473.0 km
Apogee: 1,709.6 km
Inclination: 74.1 °
Period: 117.8 minutes
Semi major axis: 7962 km
RCS: 0.0212 m2 (small)
Launch date: February 12, 1991
Source: Commonwealth of Independent States (former USSR) (CIS)
Launch site: PLESETSK MISSILE AND SPACE COMPLEX (PKMTR)

Note: This is SATELLITE DEBRIS
Your satellite tracking list
Your tracking list is empty




NASA's NSSDC Master Catalog

Two Line Element Set (TLE):
1 39691U 91009DE  23079.46614786  .00000394  00000-0  37218-2 0  9999
2 39691  74.0562 261.3602 0148557 165.0830 195.4659 12.21921802375313
Source of the keplerian elements: AFSPC